Location: Eurasberg
(48.3353°N, 11.0839°E)
Time: 06:09:35
(UTC+00:00)

COSMO-SKYMED 1 - Pass Details

Date: 18 January 2026
Orbit: 578 x 579 km, 97.9° (Epoch: 10 February)

Event Time Altitude Azimuth Distance (km) Brightness Sun altitude
Rises 04:21:19 0° 155° (SSE) 2,786 6.3 -25.8°
Reaches altitude 10° 04:23:28 10° 151° (SSE) 1,892 5.4 -25.5°
Maximum altitude 04:27:30 59° 72° (ENE) 673 2.9 -24.8°
Enters shadow 04:28:41 41° 15° (NNE) 848 3.3 -24.6°
